Location: Unspecified
(0.0000°N, 0.0000°E)
Time: 14:59:29
(UTC+00:00)

deb Midas V - Pass Details

Date: 21 April 2026
Orbit: 2771 x 3389 km, 86.6° (Epoch: 16 May)

Event Time Altitude Azimuth Distance (km) Brightness Sun altitude
Rises 05:18:37 0° 167° (SSE) 6,611 ? -9.8°
Reaches altitude 10° 05:22:30 10° 162° (SSE) 5,625 ? -8.9°
Maximum altitude 05:37:02 55° 87° (E) 3,378 ? -5.3°
Drops below altitude 10° 05:52:40 10° 13° (NNE) 6,074 ? -1.5°
Sets 05:56:58 0° 9° (N) 7,166 ? -0.4°
